[[{"header":{"parameterUnit":"m.s-1","parameterCategory":1,"la1":30.2991,"la2":30.254,"lo1":-89.0895,"lo2":-89.0444,"dx":0.0017,"dy":0.0017,"nx":28,"ny":28,"refTime":"2022-11-29T09:00:00:Z","depth":0,"parameterNumber":2,"parameterNumberName":"U-component_of_WINDS"},"data":[0,0,0,0,0,0,0,0,0,0,0,0,0,0,0,0,0,0,0,0,0,0,0,0,0,0,0,0,0,0,0,0,0,0,0,0,0,0,0,0,0,0,0,0,0,0,0,0,0,0,0,0,0,0,0,0,0,0,-3.1025,-3.1025,0,-3.1074,-3.1075,-3.1075,-3.0996,-3.0993,-3.0991,-3.0988,-3.104,-3.1044,-3.1048,0,0,0,0,0,0,0,0,0,0,0,0,0,-3.0861,-3.0865,-3.1025,-3.1025,-3.1026,-3.1074,-3.1075,-3.1075,-3.0997,-3.0993,-3.099,-3.0987,-3.1039,-3.1043,-3.1048,0,0,0,0,0,0,0,0,0,0,0,0,0,-3.0924,-3.0866,-3.1024,-3.0992,-3.099,-3.1074,-3.1075,-3.1076,-3.0997,-3.0993,-3.0989,-3.0985,-3.1037,-3.1043,-3.1049,-3.1167,0,0,-3.1067,-3.1069,0,0,0,0,0,0,0,0,-3.092,-3.093,-3.0996,-3.0995,-3.0992,-3.1025,-3.1036,-3.1106,-3.0998,-3.0995,-3.0988,-3.0983,-3.1038,-3.1044,-3.1062,-3.1169,-3.1171,-3.1067,-3.1071,-3.1073,-3.1075,0,0,0,0,0,0,0,-3.0916,-3.0927,-3.1044,-3.0997,-3.0995,-3.0975,-3.098,-3.1049,-3.1039,-3.0995,-3.0989,-3.0996,-3.1036,-3.1057,-3.1063,-3.1172,-3.1067,-3.1072,-3.1076,-3.1078,-3.1378,-3.1382,0,0,0,0,0,0,-3.0916,-3.0924,-3.1043,-3.1046,-3.0945,-3.0982,-3.0986,-3.1018,-3.1038,-3.1037,-3.0999,-3.0992,-3.1049,-3.1056,-3.1064,-3.1204,-3.1073,-3.1079,-3.1082,-3.1374,-3.1379,-3.1384,0,0,0,0,0,0,-3.0912,-3.0927,-3.1041,-3.0983,-3.0996,-3.0989,-3.1025,-3.1022,-3.1042,-3.1041,-3.1039,-3.1022,-3.1046,-3.1056,-3.1142,-3.1205,-3.1081,-3.1087,-3.1368,-3.1375,-3.1381,-3.1485,0,0,0,0,0,0,-3.0908,-3.0926,-3.0971,-3.0985,-3.1,-3.1118,-3.1029,-3.1025,-3.1052,-3.1043,-3.1062,-3.1061,-3.1043,-3.1133,-3.1148,-3.1211,-3.1091,-3.1363,-3.1371,-3.1379,-3.1476,-3.1494,-3.151,0,0,0,0,0,-3.0903,-3.0999,-3.0974,-3.0989,-3.1056,-3.1122,-3.113,-3.1107,-3.1057,-3.1103,-3.1102,-3.1061,-3.1195,-3.1143,-3.1158,-3.1224,-3.1359,-3.1369,-3.1379,-3.1468,-3.1491,-3.151,0,0,0,0,0,0,-3.0994,-3.1,-3.0973,-3.1076,-3.1099,-3.1108,-3.1165,-3.1132,-3.1169,-3.1159,-3.1129,-3.1134,-3.1226,-3.1233,-3.1175,-3.1339,-3.1269,-3.1282,-3.1331,-3.1353,-3.137,-3.1367,-3.1096,0,0,0,0,0,-3.1025,-3.1078,-3.1081,-3.1172,-3.1185,-3.1173,-3.1201,-3.1181,-3.1203,-3.1212,-3.1218,-3.1241,-3.1289,-3.1321,-3.1364,-3.1475,-3.1479,-3.1528,-3.1545,-3.1559,-3.1572,-3.1631,-3.1654,-3.1417,-3.1416,-3.1416,0,0,-3.1093,-3.1102,-3.1138,-3.1191,-3.1206,-3.1261,-3.1182,-3.1244,-3.1284,-3.1222,-3.1303,-3.1308,-3.1332,-3.1431,-3.1475,-3.144,-3.1638,-3.1572,-3.1583,-3.1588,-3.1644,-3.1666,-3.1686,-3.1423,-3.1422,-3.1421,0,0,-3.1243,-3.1256,-3.1333,-3.135,-3.1373,-3.1364,-3.1383,-3.1397,-3.1398,-3.1479,-3.1433,-3.148,-3.1563,-3.1582,-3.1602,-3.1758,-3.1722,-3.1773,-3.1863,-3.1921,-3.194,-3.1956,-3.2013,-3.2033,-3.1785,-3.1785,-3.1785,0,-3.1324,-3.1405,-3.1377,-3.1442,-3.1467,-3.1412,-3.149,-3.1507,-3.1544,-3.1562,-3.1522,-3.1623,-3.1636,-3.1739,-3.1776,-3.1794,-3.1815,-3.1772,-3.1939,-3.1956,-3.1971,-3.2024,-3.2045,-3.1791,-3.1791,-3.179,-3.179,0,-3.1504,-3.1561,-3.162,-3.1657,-3.1688,-3.1759,-3.1742,-3.1776,-3.1753,-3.1748,-3.1831,-3.1843,-3.1889,-3.1911,-3.1889,-3.2011,-3.1988,-3.1944,-3.1873,-3.2,-3.205,-3.207,-3.18,-3.1798,-3.1796,-3.1795,0,0,-3.1716,-3.1734,-3.1757,-3.1773,-3.1794,-3.1837,-3.1906,-3.1949,-3.198,-3.2006,-3.2063,-3.2133,-3.2092,-3.2115,-3.2095,-3.2146,-3.2269,-3.2095,-3.2095,-3.2128,-3.2404,-3.2438,-3.2463,-3.2244,-3.2248,-3.2251,-3.2402,0,-3.1866,-3.1985,-3.1961,-3.2077,-3.2129,-3.2076,-3.2135,-3.2155,-3.2152,-3.2196,-3.2192,-3.2242,-3.2184,-3.2198,-3.2245,-3.2244,-3.2324,-3.2232,-3.2297,-3.23,-3.2295,-3.2488,-3.2525,-3.2668,-3.2422,-3.2425,-3.2427,0,-3.2059,-3.2093,-3.2214,-3.2226,-3.2247,-3.2301,-3.2338,-3.2381,-3.2401,-3.2395,-3.2421,-3.239,-3.2457,-3.2384,-3.2476,-3.2415,-3.2439,-3.2442,-3.2447,-3.2454,-3.2373,-3.2502,-3.2713,-3.2735,-3.2457,-3.2455,-3.2453,0,-3.2203,-3.2278,-3.236,-3.2375,-3.2391,-3.243,-3.2439,-3.2455,-3.2482,-3.2515,-3.2532,-3.2572,-3.2594,-3.2626,-3.2606,-3.2555,-3.2703,-3.2628,-3.27,-3.2701,-3.2736,-3.2734,-3.2955,-3.2749,-3.2749,-3.2748,-3.2748,0,-3.2375,-3.2452,-3.2425,-3.2476,-3.256,-3.253,-3.2614,-3.2616,-3.2631,-3.2681,-3.2637,-3.2685,-3.2655,-3.2701,-3.2686,-3.2765,-3.2775,-3.2773,-3.2768,-3.2778,-3.2778,-3.2795,-3.2785,-3.2754,-3.2753,-3.2752,-3.2751,0,-3.2551,-3.2537,-3.2623,-3.263,-3.2633,-3.2695,-3.2701,-3.2748,-3.2741,-3.2805,-3.2818,-3.2807,-3.2858,-3.2841,-3.2896,-3.2886,-3.2987,-3.2969,-3.298,-3.2976,-3.305,-3.3044,-3.3291,-3.3322,-3.3095,-3.3097,-3.3099,0,-3.2663,-3.2721,-3.2734,-3.2764,-3.2776,-3.2825,-3.2852,-3.2825,-3.2855,-3.2882,-3.2926,-3.2973,-3.3009,-3.3093,-3.309,-3.3131,-3.3115,-3.3198,-3.3121,-3.3129,-3.3117,-3.3115,-3.3121,-3.3215,-3.3217,-3.3219,-3.3221,0,-3.2864,-3.2853,-3.2894,-3.2933,-3.2967,-3.2996,-3.3021,-3.3049,-3.3022,-3.3059,-3.311,-3.3138,-3.3194,-3.3241,-3.3278,-3.3286,-3.325,-3.3245,-3.3264,-3.3276,-3.3281,-3.328,-3.3024,-3.324,-3.3238,-3.3237,-3.3236,-3.3235,-3.3012,-3.3061,-3.3077,-3.3125,-3.314,-3.3165,-3.3209,-3.3207,-3.3249,-3.3292,-3.3273,-3.3332,-3.335,-3.3396,-3.3409,-3.3455,-3.3422,-3.345,-3.3457,-3.3465,-3.3475,-3.3272,-3.3461,-3.3461,-3.346,-3.346,-3.3459,0,-3.3212,-3.3219,-3.3263,-3.3299,-3.3336,-3.3297,-3.3322,-3.3356,-3.3409,-3.3428,-3.3464,-3.3523,-3.3568,-3.3568,-3.361,-3.3646,-3.3631,-3.3658,-3.3656,-3.3659,-3.3501,-3.3481,-3.367,-3.367,-3.367,-3.367,-3.367,-3.367,-3.332,-3.34,-3.3391,-3.3478,-3.3485,-3.3543,-3.3561,-3.3583,-3.3598,-3.3665,-3.3703,-3.3701,-3.3713,-3.3755,-3.3794,-3.3793,-3.3811,-3.3845,-3.3838,-3.3691,-3.367,-3.365,-3.3631,-3.3849,-3.3849,-3.3992,-3.3993,-3.3994]},{"header":{"parameterUnit":"m.s-1","parameterCategory":1,"la1":30.2991,"la2":30.254,"lo1":-89.0895,"lo2":-89.0444,"dx":0.0017,"dy":0.0017,"nx":28,"ny":28,"refTime":"2022-11-29T09:00:00:Z","depth":0,"parameterNumber":3,"parameterNumberName":"V-component_of_WINDS"},"data":[0,0,0,0,0,0,0,0,0,0,0,0,0,0,0,0,0,0,0,0,0,0,0,0,0,0,0,0,0,0,0,0,0,0,0,0,0,0,0,0,0,0,0,0,0,0,0,0,0,0,0,0,0,0,0,0,0,0,-7.6057,-7.6059,0,-7.6173,-7.6174,-7.6176,-7.6086,-7.6082,-7.6078,-7.6074,-7.6188,-7.6195,-7.6201,0,0,0,0,0,0,0,0,0,0,0,0,0,-7.5752,-7.5758,-7.6057,-7.6059,-7.606,-7.6173,-7.6175,-7.6176,-7.6086,-7.6082,-7.6077,-7.6073,-7.6186,-7.6194,-7.6202,0,0,0,0,0,0,0,0,0,0,0,0,0,-7.5878,-7.576,-7.6057,-7.6029,-7.6028,-7.6173,-7.6175,-7.6176,-7.6087,-7.6082,-7.6076,-7.607,-7.6183,-7.6193,-7.6203,-7.638,0,0,-7.6233,-7.6237,0,0,0,0,0,0,0,0,-7.5871,-7.5889,-7.6032,-7.6031,-7.603,-7.6109,-7.6109,-7.6245,-7.6089,-7.6065,-7.6074,-7.6068,-7.6166,-7.6177,-7.6211,-7.6385,-7.639,-7.6234,-7.624,-7.6244,-7.6247,0,0,0,0,0,0,0,-7.5862,-7.5884,-7.6103,-7.6034,-7.6033,-7.6009,-7.602,-7.6134,-7.6146,-7.6066,-7.606,-7.6075,-7.6165,-7.6202,-7.6213,-7.6392,-7.6234,-7.6243,-7.6249,-7.6253,-7.6715,-7.6721,0,0,0,0,0,0,-7.5857,-7.5877,-7.6099,-7.6106,-7.5935,-7.6019,-7.6032,-7.609,-7.6145,-7.6148,-7.608,-7.6071,-7.6188,-7.6202,-7.6217,-7.6428,-7.6244,-7.6254,-7.6259,-7.6708,-7.6716,-7.6723,0,0,0,0,0,0,-7.5851,-7.5878,-7.6094,-7.599,-7.6016,-7.603,-7.6096,-7.6095,-7.6132,-7.6155,-7.6156,-7.6117,-7.6184,-7.6203,-7.634,-7.643,-7.6258,-7.6267,-7.6701,-7.6711,-7.6719,-7.685,0,0,0,0,0,0,-7.5843,-7.5876,-7.5945,-7.5992,-7.6022,-7.6218,-7.6101,-7.6101,-7.615,-7.6139,-7.619,-7.6193,-7.6181,-7.6326,-7.635,-7.6441,-7.6275,-7.6693,-7.6705,-7.6716,-7.6838,-7.6863,-7.6885,0,0,0,0,0,-7.5832,-7.5977,-7.5949,-7.5976,-7.6109,-7.6223,-7.624,-7.6225,-7.6158,-7.6226,-7.6241,-7.6191,-7.6416,-7.6341,-7.6367,-7.6462,-7.6687,-7.6702,-7.6716,-7.6828,-7.6858,-7.6884,0,0,0,0,0,0,-7.5938,-7.5982,-7.5952,-7.6117,-7.6167,-7.6208,-7.6294,-7.6258,-7.6327,-7.6313,-7.629,-7.6302,-7.6446,-7.6467,-7.6382,-7.6635,-7.6541,-7.6561,-7.6617,-7.6646,-7.6669,-7.6661,-7.6283,0,0,0,0,0,-7.5981,-7.6072,-7.6105,-7.6246,-7.6273,-7.628,-7.6329,-7.6313,-7.6363,-7.6384,-7.6408,-7.6458,-7.6539,-7.6593,-7.667,-7.684,-7.6849,-7.6918,-7.6942,-7.6961,-7.6978,-7.7069,-7.71,-7.677,-7.6769,-7.6769,0,0,-7.6069,-7.6105,-7.6164,-7.6269,-7.6306,-7.6399,-7.6298,-7.6401,-7.6469,-7.6399,-7.653,-7.655,-7.6603,-7.6757,-7.6826,-7.678,-7.7071,-7.6979,-7.6994,-7.7001,-7.7087,-7.7118,-7.7146,-7.6779,-7.6777,-7.6776,0,0,-7.6279,-7.6316,-7.6438,-7.6477,-7.6535,-7.6538,-7.6567,-7.6614,-7.6624,-7.6756,-7.6705,-7.6784,-7.6926,-7.6966,-7.7005,-7.7228,-7.7185,-7.7253,-7.7375,-7.7464,-7.749,-7.7513,-7.7592,-7.7621,-7.7271,-7.7271,-7.7272,0,-7.6382,-7.6522,-7.6504,-7.6612,-7.6659,-7.66,-7.6722,-7.6761,-7.684,-7.6873,-7.6819,-7.6996,-7.7027,-7.719,-7.7244,-7.7278,-7.7309,-7.7248,-7.7488,-7.751,-7.7532,-7.7607,-7.7637,-7.7279,-7.7278,-7.7278,-7.7277,0,-7.6645,-7.6743,-7.6834,-7.6914,-7.6971,-7.7085,-7.7083,-7.7142,-7.7121,-7.7129,-7.7263,-7.7299,-7.7381,-7.7418,-7.7398,-7.7578,-7.7547,-7.7491,-7.7395,-7.7571,-7.7642,-7.767,-7.7291,-7.7288,-7.7286,-7.7284,0,0,-7.6926,-7.6994,-7.7028,-7.7063,-7.7122,-7.7197,-7.7307,-7.7389,-7.744,-7.7496,-7.7587,-7.7708,-7.7657,-7.7701,-7.7684,-7.7762,-7.7936,-7.7696,-7.7697,-7.7739,-7.8135,-7.8177,-7.8211,-7.7907,-7.7912,-7.7917,-7.813,0,-7.7138,-7.7333,-7.732,-7.7502,-7.7592,-7.7537,-7.7632,-7.7678,-7.7688,-7.7763,-7.7773,-7.7859,-7.7785,-7.7811,-7.7886,-7.7899,-7.8015,-7.7883,-7.799,-7.7994,-7.7979,-7.8247,-7.8292,-7.8493,-7.8158,-7.8162,-7.8166,0,-7.7413,-7.748,-7.7672,-7.7717,-7.7754,-7.7841,-7.7915,-7.7988,-7.8037,-7.8039,-7.8088,-7.8058,-7.8167,-7.8069,-7.8218,-7.8129,-7.8171,-7.8184,-7.8191,-7.8201,-7.8091,-7.8264,-7.8556,-7.8586,-7.8209,-7.8205,-7.8202,0,-7.7598,-7.7736,-7.7869,-7.7901,-7.7957,-7.8019,-7.8044,-7.8088,-7.8138,-7.8202,-7.8234,-7.8308,-7.8349,-7.8407,-7.8397,-7.8326,-7.8549,-7.8449,-7.8552,-7.8552,-7.8602,-7.8599,-7.8905,-7.8629,-7.8629,-7.8628,-7.8627,0,-7.7837,-7.7957,-7.7953,-7.8035,-7.8167,-7.8149,-7.8279,-7.8297,-7.8337,-7.8419,-7.8375,-7.8453,-7.8435,-7.8512,-7.8504,-7.8629,-7.8647,-7.865,-7.8647,-7.8655,-7.8655,-7.8683,-7.8669,-7.8636,-7.8634,-7.8633,-7.8631,0,-7.8067,-7.807,-7.8211,-7.8252,-7.8265,-7.836,-7.8395,-7.8471,-7.8476,-7.8582,-7.8605,-7.8614,-7.8702,-7.8698,-7.8797,-7.8792,-7.8945,-7.8925,-7.8929,-7.8925,-7.9028,-7.9018,-7.9362,-7.9406,-7.9102,-7.9105,-7.9108,0,-7.822,-7.8311,-7.8362,-7.8415,-7.8446,-7.8532,-7.8582,-7.8567,-7.8622,-7.8685,-7.8753,-7.8837,-7.8904,-7.9047,-7.9061,-7.9136,-7.9118,-7.9233,-7.9129,-7.9134,-7.9119,-7.9115,-7.9123,-7.9254,-7.9257,-7.926,-7.9263,0,-7.8491,-7.8487,-7.8563,-7.8641,-7.8703,-7.8762,-7.8816,-7.8862,-7.8852,-7.8915,-7.9006,-7.9058,-7.9159,-7.9243,-7.9315,-7.9338,-7.9299,-7.9295,-7.9323,-7.9332,-7.9331,-7.9333,-7.8985,-7.9288,-7.9285,-7.9283,-7.9282,-7.9281,-7.8686,-7.8765,-7.8813,-7.8899,-7.8938,-7.899,-7.9063,-7.9079,-7.9155,-7.9238,-7.9223,-7.9325,-7.9369,-7.9462,-7.9493,-7.957,-7.9529,-7.9569,-7.9579,-7.9589,-7.9601,-7.9318,-7.9583,-7.9582,-7.9582,-7.9581,-7.958,0,-7.8955,-7.8983,-7.9063,-7.914,-7.9208,-7.9166,-7.9223,-7.9282,-7.9372,-7.9418,-7.9485,-7.9588,-7.9669,-7.9689,-7.9766,-7.9824,-7.9808,-7.9845,-7.9841,-7.9847,-7.9634,-7.9602,-7.9857,-7.9857,-7.9857,-7.9857,-7.9857,-7.9857,-7.9102,-7.9232,-7.9235,-7.9383,-7.9409,-7.951,-7.9546,-7.9592,-7.9629,-7.9747,-7.9815,-7.9828,-7.9863,-7.9942,-8.0014,-8.0017,-8.0047,-8.0092,-8.0089,-7.9889,-7.9862,-7.9835,-7.9806,-8.0099,-8.0099,-8.0295,-8.0297,-8.0298]}]]